Simultaneous Nadir Overpasses (SNOs) Predictions

Prediction of SNOs between NPP and TERRA Satellite Orbit:

Table of predicted SNOs for the next 14.0 days since TLE Epoch: 3/16/2017
Index Date (NPP) Time (NPP) Lat,Lon (NPP) SZA (NPP ) Date (TERRA) Time (TERRA) Lat,Lon (TERRA) SZA (TERRA ) Distance(km) Time Diff (sec)
1 03/18/2017 10:39:06 68.63, 18.49 69.35 03/18/2017 10:40:17 68.57, 18.96 69.27 20.25 71
2 03/18/2017 11:29:43 -68.27,-173.73 111.04 03/18/2017 11:29:50 -68.30,-173.73 111.01 3.07 7
3 03/18/2017 12:20:27 68.15, -6.27 68.83 03/18/2017 12:19:18 68.13, -6.29 68.81 2.74 69
4 03/21/2017 02:55:54 68.36, 134.62 68.01 03/21/2017 02:56:50 68.36, 134.59 68.01 1.15 56
5 03/21/2017 03:46:36 -68.27, -57.95 112.10 03/21/2017 03:46:20 -68.27, -57.90 112.11 2.23 16
6 03/21/2017 04:37:07 67.45, 110.37 67.05 03/21/2017 04:35:58 67.53, 108.90 67.16 63.49 69
7 03/23/2017 19:12:46 68.31,-109.54 66.90 03/23/2017 19:13:20 68.32,-109.58 66.90 1.94 34
8 03/23/2017 20:03:28 -68.22, 57.90 113.22 03/23/2017 20:02:50 -68.22, 57.93 113.21 1.45 38
9 03/26/2017 10:39:05 -68.96,-161.93 113.48 03/26/2017 10:40:15 -68.83,-160.71 113.64 50.60 70
10 03/26/2017 11:29:38 68.27, 6.30 65.79 03/26/2017 11:29:50 68.27, 6.24 65.79 2.67 12
11 03/26/2017 12:20:20 -68.17, 173.75 114.33 03/26/2017 12:19:20 -68.17, 173.76 114.32 0.83 60
12 03/29/2017 02:55:46 -68.38, -45.37 115.13 03/29/2017 02:56:51 -68.39, -45.38 115.13 1.50 65
13 03/29/2017 03:46:30 68.28, 122.07
